Regional Weather Roundup
Issued by NWS

Home | Current Version | Previous Version | Graphics & Text | Print | Product List | Glossary On
Versions: 1 2 3 4 5 6 7 8 9 10 11 12 13 14 15 16 17 18 19 20 21 22 23 24 25 26 27 28 29 30 31 32 33 34 35 36 37 38 39 40 41 42 43 44 45 46 47 48 49 50
000
ASUS43 KDMX 080901
RWRIA

WEATHER ROUNDUP FOR IOWA
NATIONAL WEATHER SERVICE DES MOINES IA
300 AM CST THU DEC 08 2016

NOTE: "FAIR" INDICATES FEW OR NO CLOUDS BELOW 12,000 FEET WITH NO
SIGNIFICANT WEATHER AND/OR OBSTRUCTIONS TO VISIBILITY.

* - THESE STATIONS ARE NOT NWS STATIONS...THUS NOT UNDER NWS
QUALITY CONTROL.  THEY ALSO DO NOT REPORT WEATHER SUCH
AS PRECIPITATION OR FOG.

IAZ001>003-012>014-020>022-031>034-043>046-081000-
   NORTHWEST IOWA

CITY           SKY/WX    TMP DP  RH WIND       PRES   REMARKS
CARROLL *      CLEAR     10   5  79 W25       30.39R WCI -10
CHEROKEE *     CLEAR      9   3  77 W14G25    30.41R WCI  -7
DENISON *      PTCLDY    10   5  79 NW18G26   30.41R WCI  -8
LE MARS *      PTCLDY    10   3  72 NW10G20   30.46R WCI  -3
ORANGE CITY *  CLOUDY     9   3  78 NW26      30.39R WCI -13
SHELDON *      LGT SNOW   9   5  85 NW18G26   30.36R WCI -10
SIOUX CITY     PTCLDY    13   3  64 NW24G33   30.46R WCI  -7
SPENCER        PTCLDY     9   4  80 W29       30.34R WCI -13
STORM LAKE *   MOCLDY     9   3  78 W24G30    30.36R WCI -12
$$

IAZ055>058-069>071-079>083-090>094-081000-
   SOUTHWEST IOWA

CITY           SKY/WX    TMP DP  RH WIND       PRES   REMARKS
ATLANTIC *     CLOUDY    14   7  73 NW13      30.44R WCI   0
AUDUBON *      CLEAR     10   5  79 NW10G18   30.41S WCI  -3
CLARINDA *     CLEAR     16   7  67 NW10G18   30.50R WCI   3
COUNCIL BLFS * CLOUDY    12   5  73 NW17G26   30.47R WCI  -5
CRESTON *      CLOUDY    12   5  73 NW18      30.41S WCI  -5
HARLAN  *      CLOUDY    14   7  73 NW26G33   30.47R WCI  -6
LAMONI         CLEAR     14   6  70 NW20G28   30.41R WCI  -3
RED OAK *      CLOUDY    14   7  73 NW14G25   30.48R WCI  -1
SHENANDOAH *   CLEAR     16   7  67 NW17      30.51R WCI   0
$$

IAZ047>049-059>061-072>074-084-081000-
   CENTRAL IOWA

CITY           SKY/WX    TMP DP  RH WIND       PRES   REMARKS
AMES           PTCLDY    13   6  74 NW16G28   30.36R WCI  -3
ANKENY *       FLURRIES  14   5  67 NW20G33   30.39R WCI  -3
BOONE *        CLOUDY    12   3  67 NW23      30.34R WCI  -7
CHARITON *     CLOUDY    16   9  73 W18G25    30.38R WCI  -1
DES MOINES     PTCLDY    15   5  64 NW22      30.38R WCI  -3
GRINNELL*      MOCLDY    15   8  74 W22G29    30.33R WCI  -3
KNOXVILLE *    CLOUDY    16   7  67 NW22      30.35S WCI  -2
MARSHALLTOWN   PTCLDY    13   6  74 W15       30.32S WCI  -3
NEWTON *       CLOUDY    14   7  73 W23G30    30.35R WCI  -5
PELLA *        PTCLDY    17   9  72 NW18G25   30.37S WCI   0
PERRY *          N/A     13   7  76 W21G29    30.39R WCI  -5
$$

IAZ004>006-015-016-023>025-035-036-081000-
   NORTH CENTRAL IOWA

CITY           SKY/WX    TMP DP  RH WIND       PRES   REMARKS
ALGONA *       MOCLDY    10   5  79 W17G24    30.30S WCI  -7
CLARION *      CLEAR     10   3  72 W21G28    30.31S WCI  -9
ESTHERVILLE    PTCLDY     9   4  80 W25       30.30R WCI -12
FORT DODGE *   CLEAR     10   1  67 W14G22    30.36R WCI  -5
MASON CITY     PTCLDY    10   4  76 W22G29    30.27S WCI -10
WEBSTER CITY * CLEAR     10   5  79 W22G31    30.32S WCI  -9
IOWA FALLS *     N/A     12   6  77 W22       30.31S WCI  -7
$$

IAZ007>011-017>019-026>030-037>042-050>054-066-081000-
   NORTHEAST IOWA

CITY           SKY/WX    TMP DP  RH WIND       PRES   REMARKS
CEDAR RAPIDS   MOCLDY    14   9  80 W21G29    30.28S WCI  -4
CHARLES CITY * CLOUDY    12   5  73 W22       30.25S WCI  -7
CLINTON *      FLURRIES  18  12  77 NW23G31   30.25R WCI   0
DECORAH *      CLOUDY    12   7  79 W9G22     30.18S WCI   0
DUBUQUE        PTCLDY    13   6  74 W15G24    30.22R WCI  -3
MONTICELLO *   MOCLDY    14   7  73 W17G25    30.25R WCI  -3
OELWEIN *      PTCLDY    12   7  79 W22G28    30.24S WCI  -7
WATERLOO       PTCLDY    12   5  73 W20       30.28S WCI  -6
$$

IAZ064-065-067-068-078-081000-
   EAST CENTRAL IOWA

CITY           SKY/WX    TMP DP  RH WIND       PRES   REMARKS
DAVENPORT      CLOUDY    19  11  70 W23       30.27R WCI   2
IOWA CITY      CLEAR     18   8  65 W20G28    30.33R WCI   2
MUSCATINE *    FLURRIES  19  10  68 NW20G29   30.33S WCI   4
QUAD CITIES    CLOUDY    20  10  65 W18G28    30.28R WCI   5
$$

IAZ062-063-075>077-085>089-095>099-081000-
   SOUTHEAST IOWA

CITY           SKY/WX    TMP DP  RH WIND       PRES   REMARKS
BURLINGTON     CLEAR     18  10  71 W15G23    30.33R WCI   4
FAIRFIELD *    CLEAR     16   7  67 NW14G21   30.35R WCI   1
FORT MADISON * CLEAR     18  10  73 W15       30.35R WCI   3
KEOKUK *       CLEAR     19  10  68 W9G20     30.36R WCI   9
OSKALOOSA *      N/A     16  10  75 NW22G28   30.36R WCI  -1
CENTERVILLE *    N/A     16   9  73 W17G23    30.39R WCI   0
OTTUMWA        PTCLDY    17   7  64 W14       30.35R WCI   3
WASHINGTON *   CLOUDY    18  10  73 W18G25    30.34S WCI   2
$$

ABBREVIATIONS USED IN REMARKS
   TC - TEMPERATURES IN CELSIUS
  WCI - WIND CHILL INDEX
   HX - HEAT INDEX
  VSB - VISIBILITY
$$





USA.gov is the U.S. government's official web portal to all federal, state and local government web resources and services.